Year,Month,Day,Hour,Minute,Value (Times are PST for temperature in C)
2013,05,21,00,00,10.20
2013,05,21,00,01,10.10
2013,05,21,00,02,10.10
2013,05,21,00,03,10.10
2013,05,21,00,04,10.10
2013,05,21,00,05,10.10
2013,05,21,00,06,10.10
2013,05,21,00,07,10.10
2013,05,21,00,08,10.10
2013,05,21,00,09,10.10
2013,05,21,00,10,10.10
2013,05,21,00,11,10.20
2013,05,21,00,12,10.10
2013,05,21,00,13,10.10
2013,05,21,00,14,10.10
2013,05,21,00,15,10.10
2013,05,21,00,16,10.10
2013,05,21,00,17,10.10
2013,05,21,00,18,10.10
2013,05,21,00,19,10.10
2013,05,21,00,20,10.10
2013,05,21,00,21,10.10
2013,05,21,00,22,10.00
2013,05,21,00,23,9.90
2013,05,21,00,24,9.80
2013,05,21,00,25,9.70
2013,05,21,00,26,9.70
2013,05,21,00,27,9.70
2013,05,21,00,28,9.70
2013,05,21,00,29,9.70
2013,05,21,00,30,9.70
2013,05,21,00,31,9.60
2013,05,21,00,32,9.40
2013,05,21,00,33,9.40
2013,05,21,00,34,9.30
2013,05,21,00,35,9.30
2013,05,21,00,36,9.30
2013,05,21,00,37,9.20
2013,05,21,00,38,9.20
2013,05,21,00,39,9.20
2013,05,21,00,40,9.20
2013,05,21,00,41,9.20
2013,05,21,00,42,9.20
2013,05,21,00,43,9.20
2013,05,21,00,44,9.20
2013,05,21,00,45,9.20
2013,05,21,00,46,9.20
2013,05,21,00,47,9.20
2013,05,21,00,48,9.20
2013,05,21,00,49,9.20
2013,05,21,00,50,9.20
2013,05,21,00,51,9.20
2013,05,21,00,52,9.20
2013,05,21,00,53,9.20
2013,05,21,00,54,9.20
2013,05,21,00,55,9.20
2013,05,21,00,56,9.10
2013,05,21,00,57,9.10
2013,05,21,00,58,9.10
2013,05,21,00,59,9.10
2013,05,21,01,00,9.20
2013,05,21,01,01,9.20
2013,05,21,01,02,9.20
2013,05,21,01,03,9.20
2013,05,21,01,04,9.20
2013,05,21,01,05,9.20
2013,05,21,01,06,9.20
2013,05,21,01,07,9.10
2013,05,21,01,08,9.10
2013,05,21,01,09,9.20
2013,05,21,01,10,9.20
2013,05,21,01,11,9.20
2013,05,21,01,12,9.20
2013,05,21,01,13,9.10
2013,05,21,01,14,9.10
2013,05,21,01,15,9.10
2013,05,21,01,16,9.10
2013,05,21,01,17,9.10
2013,05,21,01,18,9.10
2013,05,21,01,19,9.10
2013,05,21,01,20,9.00
2013,05,21,01,21,9.00
2013,05,21,01,22,9.00
2013,05,21,01,23,9.00
2013,05,21,01,24,9.00
2013,05,21,01,25,9.00
2013,05,21,01,26,8.90
2013,05,21,01,27,8.90
2013,05,21,01,28,8.90
2013,05,21,01,29,9.00
2013,05,21,01,30,9.00
2013,05,21,01,31,9.00
2013,05,21,01,32,9.00
2013,05,21,01,33,9.00
2013,05,21,01,34,9.00
2013,05,21,01,35,9.00
2013,05,21,01,36,9.00
2013,05,21,01,37,8.90
2013,05,21,01,38,8.90
2013,05,21,01,39,8.90
2013,05,21,01,40,8.90
2013,05,21,01,41,8.90
2013,05,21,01,42,8.90
2013,05,21,01,43,8.90
2013,05,21,01,44,8.90
2013,05,21,01,45,8.90
2013,05,21,01,46,8.90
2013,05,21,01,47,8.90
2013,05,21,01,48,8.90
2013,05,21,01,49,8.90
2013,05,21,01,50,8.90
2013,05,21,01,51,8.90
2013,05,21,01,52,8.90
2013,05,21,01,53,8.90
2013,05,21,01,54,8.90
2013,05,21,01,55,8.90
2013,05,21,01,56,8.90
2013,05,21,01,57,8.90
2013,05,21,01,58,8.90
2013,05,21,01,59,8.90
2013,05,21,02,00,8.90
2013,05,21,02,01,8.90
2013,05,21,02,02,8.90
2013,05,21,02,03,8.80
2013,05,21,02,04,8.80
2013,05,21,02,05,8.80
2013,05,21,02,06,8.80
2013,05,21,02,07,8.80
2013,05,21,02,08,8.80
2013,05,21,02,09,8.80
2013,05,21,02,10,8.80
2013,05,21,02,11,8.70
2013,05,21,02,12,8.70
2013,05,21,02,13,8.70
2013,05,21,02,14,8.70
2013,05,21,02,15,8.70
2013,05,21,02,16,8.70
2013,05,21,02,17,8.70
2013,05,21,02,18,8.60
2013,05,21,02,19,8.60
2013,05,21,02,20,8.60
2013,05,21,02,21,8.60
2013,05,21,02,22,8.60
2013,05,21,02,23,8.60
2013,05,21,02,24,8.60
2013,05,21,02,25,8.60
2013,05,21,02,26,8.60
2013,05,21,02,27,8.60
2013,05,21,02,28,8.60
2013,05,21,02,29,8.60
2013,05,21,02,30,8.60
2013,05,21,02,31,8.60
2013,05,21,02,32,8.60
2013,05,21,02,33,8.60
2013,05,21,02,34,8.60
2013,05,21,02,35,8.50
2013,05,21,02,36,8.50
2013,05,21,02,37,8.50
2013,05,21,02,38,8.50
2013,05,21,02,39,8.50
2013,05,21,02,40,8.50
2013,05,21,02,41,8.50
2013,05,21,02,42,8.50
2013,05,21,02,43,8.50
2013,05,21,02,44,8.50
2013,05,21,02,45,8.60
2013,05,21,02,46,8.60
2013,05,21,02,47,8.60
2013,05,21,02,48,8.60
2013,05,21,02,49,8.50
2013,05,21,02,50,8.50
2013,05,21,02,51,8.50
2013,05,21,02,52,8.50
2013,05,21,02,53,8.50
2013,05,21,02,54,8.50
2013,05,21,02,55,8.50
2013,05,21,02,56,8.50
2013,05,21,02,57,8.50
2013,05,21,02,58,8.50
2013,05,21,02,59,8.50
2013,05,21,03,00,8.50
2013,05,21,03,01,8.50
2013,05,21,03,02,8.50
2013,05,21,03,03,8.50
2013,05,21,03,04,8.50
2013,05,21,03,05,8.50
2013,05,21,03,06,8.50
2013,05,21,03,07,8.50
2013,05,21,03,08,8.50
2013,05,21,03,09,8.40
2013,05,21,03,10,8.40
2013,05,21,03,11,8.40
2013,05,21,03,12,8.40
2013,05,21,03,13,8.40
2013,05,21,03,14,8.40
2013,05,21,03,15,8.40
2013,05,21,03,16,8.40
2013,05,21,03,17,8.40
2013,05,21,03,18,8.40
2013,05,21,03,19,8.40
2013,05,21,03,20,8.40
2013,05,21,03,21,8.40
2013,05,21,03,22,8.40
2013,05,21,03,23,8.40
2013,05,21,03,24,8.40
2013,05,21,03,25,8.40
2013,05,21,03,26,8.40
2013,05,21,03,27,8.40
2013,05,21,03,28,8.40
2013,05,21,03,29,8.50
2013,05,21,03,30,8.50
2013,05,21,03,31,8.50
2013,05,21,03,32,8.50
2013,05,21,03,33,8.50
2013,05,21,03,34,8.40
2013,05,21,03,35,8.40
2013,05,21,03,36,8.40
2013,05,21,03,37,8.30
2013,05,21,03,38,8.30
2013,05,21,03,39,8.30
2013,05,21,03,40,8.30
2013,05,21,03,41,8.30
2013,05,21,03,42,8.20
2013,05,21,03,43,8.20
2013,05,21,03,44,8.20
2013,05,21,03,45,8.20
2013,05,21,03,46,8.20
2013,05,21,03,47,8.20
2013,05,21,03,48,8.20
2013,05,21,03,49,8.20
2013,05,21,03,50,8.20
2013,05,21,03,51,8.20
2013,05,21,03,52,8.20
2013,05,21,03,53,8.20
2013,05,21,03,54,8.20
2013,05,21,03,55,8.20
2013,05,21,03,56,8.20
2013,05,21,03,57,8.20
2013,05,21,03,58,8.20
2013,05,21,03,59,8.30
2013,05,21,04,00,8.30
2013,05,21,04,01,8.30
2013,05,21,04,02,8.30
2013,05,21,04,03,8.30
2013,05,21,04,04,8.40
2013,05,21,04,05,8.40
2013,05,21,04,06,8.40
2013,05,21,04,07,8.40
2013,05,21,04,08,8.40
2013,05,21,04,09,8.40
2013,05,21,04,10,8.50
2013,05,21,04,11,8.50
2013,05,21,04,12,8.50
2013,05,21,04,13,8.50
2013,05,21,04,14,8.50
2013,05,21,04,15,8.50
2013,05,21,04,16,8.50
2013,05,21,04,17,8.50
2013,05,21,04,18,8.50
2013,05,21,04,19,8.40
2013,05,21,04,20,8.40
2013,05,21,04,21,8.40
2013,05,21,04,22,8.40
2013,05,21,04,23,8.40
2013,05,21,04,24,8.40
2013,05,21,04,25,8.40
2013,05,21,04,26,8.50
2013,05,21,04,27,8.50
2013,05,21,04,28,8.40
2013,05,21,04,29,8.40
2013,05,21,04,30,8.40
2013,05,21,04,31,8.40
2013,05,21,04,32,8.40
2013,05,21,04,33,8.40
2013,05,21,04,34,8.40
2013,05,21,04,35,8.40
2013,05,21,04,36,8.40
2013,05,21,04,37,8.40
2013,05,21,04,38,8.40
2013,05,21,04,39,8.30
2013,05,21,04,40,8.30
2013,05,21,04,41,8.30
2013,05,21,04,42,8.30
2013,05,21,04,43,8.30
2013,05,21,04,44,8.30
2013,05,21,04,45,8.30
2013,05,21,04,46,8.30
2013,05,21,04,47,8.30
2013,05,21,04,48,8.30
2013,05,21,04,49,8.30
2013,05,21,04,50,8.20
2013,05,21,04,51,8.20
2013,05,21,04,52,8.20
2013,05,21,04,53,8.20
2013,05,21,04,54,8.20
2013,05,21,04,55,8.20
2013,05,21,04,56,8.20
2013,05,21,04,57,8.20
2013,05,21,04,58,8.20
2013,05,21,04,59,8.10
2013,05,21,05,00,8.10
2013,05,21,05,01,8.10
2013,05,21,05,02,8.10
2013,05,21,05,03,8.10
2013,05,21,05,04,8.10
2013,05,21,05,05,8.00
2013,05,21,05,06,8.00
2013,05,21,05,07,8.00
2013,05,21,05,08,8.00
2013,05,21,05,09,8.00
2013,05,21,05,10,7.90
2013,05,21,05,11,7.90
2013,05,21,05,12,7.90
2013,05,21,05,13,7.90
2013,05,21,05,14,7.90
2013,05,21,05,15,7.90
2013,05,21,05,16,7.80
2013,05,21,05,17,7.80
2013,05,21,05,18,7.80
2013,05,21,05,19,7.80
2013,05,21,05,20,7.80
2013,05,21,05,21,7.80
2013,05,21,05,22,7.80
2013,05,21,05,23,7.80
2013,05,21,05,24,7.80
2013,05,21,05,25,7.80
2013,05,21,05,26,7.80
2013,05,21,05,27,7.80
2013,05,21,05,28,7.80
2013,05,21,05,29,7.80
2013,05,21,05,30,7.80
2013,05,21,05,31,7.80
2013,05,21,05,32,7.80
2013,05,21,05,33,7.80
2013,05,21,05,34,7.80
2013,05,21,05,35,7.80
2013,05,21,05,36,7.80
2013,05,21,05,37,7.80
2013,05,21,05,38,7.80
2013,05,21,05,39,7.80
2013,05,21,05,40,7.80
2013,05,21,05,41,7.80
2013,05,21,05,42,7.80
2013,05,21,05,43,7.80
2013,05,21,05,44,7.80
2013,05,21,05,45,7.80
2013,05,21,05,46,7.80
2013,05,21,05,47,7.80
2013,05,21,05,48,7.80
2013,05,21,05,49,7.80
2013,05,21,05,50,7.80
2013,05,21,05,51,7.80
2013,05,21,05,52,7.80
2013,05,21,05,53,7.80
2013,05,21,05,54,7.80
2013,05,21,05,55,7.80
2013,05,21,05,56,7.80
2013,05,21,05,57,7.80
2013,05,21,05,58,7.80
2013,05,21,05,59,7.80
2013,05,21,06,00,7.80
2013,05,21,06,01,7.80
2013,05,21,06,02,7.80
2013,05,21,06,03,7.80
2013,05,21,06,04,7.80
2013,05,21,06,05,7.80
2013,05,21,06,06,7.80
2013,05,21,06,07,7.80
2013,05,21,06,08,7.80
2013,05,21,06,09,7.90
2013,05,21,06,10,7.90
2013,05,21,06,11,7.90
2013,05,21,06,12,7.90
2013,05,21,06,13,7.90
2013,05,21,06,14,7.90
2013,05,21,06,15,7.90
2013,05,21,06,16,7.80
2013,05,21,06,17,7.80
2013,05,21,06,18,7.90
2013,05,21,06,19,7.90
2013,05,21,06,20,7.90
2013,05,21,06,21,7.90
2013,05,21,06,22,7.90
2013,05,21,06,23,7.90
2013,05,21,06,24,7.90
2013,05,21,06,25,7.90
2013,05,21,06,26,7.90
2013,05,21,06,27,7.80
2013,05,21,06,28,7.80
2013,05,21,06,29,7.80
2013,05,21,06,30,7.80
2013,05,21,06,31,7.80
2013,05,21,06,32,7.80
2013,05,21,06,33,7.80
2013,05,21,06,34,7.80
2013,05,21,06,35,7.80
2013,05,21,06,36,7.80
2013,05,21,06,37,7.80
2013,05,21,06,38,7.80
2013,05,21,06,39,7.80
2013,05,21,06,40,7.80
2013,05,21,06,41,7.80
2013,05,21,06,42,7.80
2013,05,21,06,43,7.80
2013,05,21,06,44,7.80
2013,05,21,06,45,7.80
2013,05,21,06,46,7.80
2013,05,21,06,47,7.80
2013,05,21,06,48,7.80
2013,05,21,06,49,7.80
2013,05,21,06,50,7.80
2013,05,21,06,51,7.80
2013,05,21,06,52,7.80
2013,05,21,06,53,7.90
2013,05,21,06,54,7.90
2013,05,21,06,55,7.90
2013,05,21,06,56,7.90
2013,05,21,06,57,7.90
2013,05,21,06,58,7.90
2013,05,21,06,59,7.90
2013,05,21,07,00,7.90
2013,05,21,07,01,7.90
2013,05,21,07,02,7.90
2013,05,21,07,03,8.00
2013,05,21,07,04,8.00
2013,05,21,07,05,8.00
2013,05,21,07,06,8.00
2013,05,21,07,07,8.00
2013,05,21,07,08,8.00
2013,05,21,07,09,8.00
2013,05,21,07,10,8.00
2013,05,21,07,11,8.00
2013,05,21,07,12,8.00
2013,05,21,07,13,8.00
2013,05,21,07,14,8.00
2013,05,21,07,15,8.00
2013,05,21,07,16,8.00
2013,05,21,07,17,8.00
2013,05,21,07,18,8.00
2013,05,21,07,19,8.00
2013,05,21,07,20,8.00
2013,05,21,07,21,8.00
2013,05,21,07,22,8.00
2013,05,21,07,23,8.00
2013,05,21,07,24,8.00
2013,05,21,07,25,8.00
2013,05,21,07,26,8.00
2013,05,21,07,27,8.00
2013,05,21,07,28,8.00
2013,05,21,07,29,8.00
2013,05,21,07,30,8.00
2013,05,21,07,31,8.00
2013,05,21,07,32,8.00
2013,05,21,07,33,8.00
2013,05,21,07,34,8.10
2013,05,21,07,35,8.10
2013,05,21,07,36,8.10
2013,05,21,07,37,8.10
2013,05,21,07,38,8.10
2013,05,21,07,39,8.20
2013,05,21,07,40,8.20
2013,05,21,07,41,8.20
2013,05,21,07,42,8.20
2013,05,21,07,43,8.20
2013,05,21,07,44,8.20
2013,05,21,07,45,8.10
2013,05,21,07,46,8.20
2013,05,21,07,47,8.20
2013,05,21,07,48,8.20
2013,05,21,07,49,8.20
2013,05,21,07,50,8.20
2013,05,21,07,51,8.20
2013,05,21,07,52,8.20
2013,05,21,07,53,8.20
2013,05,21,07,54,8.30
2013,05,21,07,55,8.30
2013,05,21,07,56,8.30
2013,05,21,07,57,8.30
2013,05,21,07,58,8.40
2013,05,21,07,59,8.40
2013,05,21,08,00,8.40
2013,05,21,08,01,8.40
2013,05,21,08,02,8.40
2013,05,21,08,03,8.40
2013,05,21,08,04,8.40
2013,05,21,08,05,8.40
2013,05,21,08,06,8.40
2013,05,21,08,07,8.50
2013,05,21,08,08,8.50
2013,05,21,08,09,8.50
2013,05,21,08,10,8.50
2013,05,21,08,11,8.50
2013,05,21,08,12,8.50
2013,05,21,08,13,8.50
2013,05,21,08,14,8.50
2013,05,21,08,15,8.60
2013,05,21,08,16,8.60
2013,05,21,08,17,8.60
2013,05,21,08,18,8.60
2013,05,21,08,19,8.60
2013,05,21,08,20,8.60
2013,05,21,08,21,8.50
2013,05,21,08,22,8.50
2013,05,21,08,23,8.50
2013,05,21,08,24,8.50
2013,05,21,08,25,8.50
2013,05,21,08,26,8.50
2013,05,21,08,27,8.40
2013,05,21,08,28,8.40
2013,05,21,08,29,8.40
2013,05,21,08,30,8.40
2013,05,21,08,31,8.50
2013,05,21,08,32,8.50
2013,05,21,08,33,8.50
2013,05,21,08,34,8.50
2013,05,21,08,35,8.50
2013,05,21,08,36,8.50
2013,05,21,08,37,8.50
2013,05,21,08,38,8.50
2013,05,21,08,39,8.60
2013,05,21,08,40,8.60
2013,05,21,08,41,8.60
2013,05,21,08,42,8.60
2013,05,21,08,43,8.50
2013,05,21,08,44,8.50
2013,05,21,08,45,8.50
2013,05,21,08,46,8.60
2013,05,21,08,47,8.60
2013,05,21,08,48,8.60
2013,05,21,08,49,8.60
2013,05,21,08,50,8.60
2013,05,21,08,51,8.70
2013,05,21,08,52,8.70
2013,05,21,08,53,8.70
2013,05,21,08,54,8.80
2013,05,21,08,55,8.80
2013,05,21,08,56,8.80
2013,05,21,08,57,8.80
2013,05,21,08,58,8.90
2013,05,21,08,59,8.90
2013,05,21,09,00,8.90
2013,05,21,09,01,9.00
2013,05,21,09,02,9.00
2013,05,21,09,03,9.00
2013,05,21,09,04,9.10
2013,05,21,09,05,9.10
2013,05,21,09,06,9.10
2013,05,21,09,07,9.10
2013,05,21,09,08,9.00
2013,05,21,09,09,9.10
2013,05,21,09,10,9.20
2013,05,21,09,11,9.20
2013,05,21,09,12,9.30
2013,05,21,09,13,9.30
2013,05,21,09,14,9.30
2013,05,21,09,15,9.40
2013,05,21,09,16,9.40
2013,05,21,09,17,9.40
2013,05,21,09,18,9.40
2013,05,21,09,19,9.50
2013,05,21,09,20,9.60
2013,05,21,09,21,9.70
2013,05,21,09,22,9.70
2013,05,21,09,23,9.70
2013,05,21,09,24,9.80
2013,05,21,09,25,9.80
2013,05,21,09,26,9.80
2013,05,21,09,27,9.90
2013,05,21,09,28,9.90
2013,05,21,09,29,9.90
2013,05,21,09,30,9.90
2013,05,21,09,31,9.90
2013,05,21,09,32,10.00
2013,05,21,09,33,10.10
2013,05,21,09,34,10.10
2013,05,21,09,35,10.10
2013,05,21,09,36,10.20
2013,05,21,09,37,10.20
2013,05,21,09,38,10.30
2013,05,21,09,39,10.30
2013,05,21,09,40,10.40
2013,05,21,09,41,10.40
2013,05,21,09,42,10.40
2013,05,21,09,43,10.40
2013,05,21,09,44,10.40
2013,05,21,09,45,10.40
2013,05,21,09,46,10.40
2013,05,21,09,47,10.40
2013,05,21,09,48,10.40
2013,05,21,09,49,10.40
2013,05,21,09,50,10.40
2013,05,21,09,51,10.40
2013,05,21,09,52,10.40
2013,05,21,09,53,10.40
2013,05,21,09,54,10.40
2013,05,21,09,55,10.30
2013,05,21,09,56,10.20
2013,05,21,09,57,10.20
2013,05,21,09,58,10.10
2013,05,21,09,59,10.10
2013,05,21,10,00,9.90
2013,05,21,10,01,9.90
2013,05,21,10,02,9.90
2013,05,21,10,03,9.90
2013,05,21,10,04,9.90
2013,05,21,10,05,9.90
2013,05,21,10,06,9.90
2013,05,21,10,07,9.90
2013,05,21,10,08,9.90
2013,05,21,10,09,9.90
2013,05,21,10,10,9.90
2013,05,21,10,11,9.90
2013,05,21,10,12,9.90
2013,05,21,10,13,9.90
2013,05,21,10,14,9.90
2013,05,21,10,15,9.80
2013,05,21,10,16,9.80
2013,05,21,10,17,9.80
2013,05,21,10,18,9.70
2013,05,21,10,19,9.70
2013,05,21,10,20,9.70
2013,05,21,10,21,9.80
2013,05,21,10,22,9.80
2013,05,21,10,23,9.80
2013,05,21,10,24,9.80
2013,05,21,10,25,9.80
2013,05,21,10,26,9.80
2013,05,21,10,27,9.80
2013,05,21,10,28,9.80
2013,05,21,10,29,9.80
2013,05,21,10,30,9.80
2013,05,21,10,31,9.70
2013,05,21,10,32,9.70
2013,05,21,10,33,9.70
2013,05,21,10,34,9.70
2013,05,21,10,35,9.80
2013,05,21,10,36,9.80
2013,05,21,10,37,9.80
2013,05,21,10,38,9.80
2013,05,21,10,39,9.90
2013,05,21,10,40,9.90
2013,05,21,10,41,9.80
2013,05,21,10,42,9.80
2013,05,21,10,43,9.80
2013,05,21,10,44,9.80
2013,05,21,10,45,9.70
2013,05,21,10,46,9.70
2013,05,21,10,47,9.80
2013,05,21,10,48,9.80
2013,05,21,10,49,9.80
2013,05,21,10,50,9.70
2013,05,21,10,51,9.70
2013,05,21,10,52,9.60
2013,05,21,10,53,9.60
2013,05,21,10,54,9.60
2013,05,21,10,55,9.60
2013,05,21,10,56,9.60
2013,05,21,10,57,9.50
2013,05,21,10,58,9.50
2013,05,21,10,59,9.50
2013,05,21,11,00,9.60
2013,05,21,11,01,9.60
2013,05,21,11,02,9.50
2013,05,21,11,03,9.50
2013,05,21,11,04,9.50
2013,05,21,11,05,9.50
2013,05,21,11,06,9.40
2013,05,21,11,07,9.40
2013,05,21,11,08,9.40
2013,05,21,11,09,9.50
2013,05,21,11,10,9.40
2013,05,21,11,11,9.50
2013,05,21,11,12,9.50
2013,05,21,11,13,9.60
2013,05,21,11,14,9.60
2013,05,21,11,15,9.60
2013,05,21,11,16,9.60
2013,05,21,11,17,9.60
2013,05,21,11,18,9.50
2013,05,21,11,19,9.50
2013,05,21,11,20,9.60
2013,05,21,11,21,9.60
2013,05,21,11,22,9.70
2013,05,21,11,23,9.70
2013,05,21,11,24,9.70
2013,05,21,11,25,9.70
2013,05,21,11,26,9.60
2013,05,21,11,27,9.60
2013,05,21,11,28,9.60
2013,05,21,11,29,9.60
2013,05,21,11,30,9.60
2013,05,21,11,31,9.60
2013,05,21,11,32,9.60
2013,05,21,11,33,9.60
2013,05,21,11,34,9.70
2013,05,21,11,35,9.70
2013,05,21,11,36,9.70
2013,05,21,11,37,9.70
2013,05,21,11,38,9.80
2013,05,21,11,39,9.90
2013,05,21,11,40,9.80
2013,05,21,11,41,9.70
2013,05,21,11,42,9.70
2013,05,21,11,43,9.70
2013,05,21,11,44,9.80
2013,05,21,11,45,9.80
2013,05,21,11,46,9.80
2013,05,21,11,47,9.80
2013,05,21,11,48,9.80
2013,05,21,11,49,9.90
2013,05,21,11,50,9.80
2013,05,21,11,51,9.80
2013,05,21,11,52,9.80
2013,05,21,11,53,9.80
2013,05,21,11,54,9.80
2013,05,21,11,55,9.80
2013,05,21,11,56,9.70
2013,05,21,11,57,9.80
2013,05,21,11,58,9.80
2013,05,21,11,59,9.80
2013,05,21,12,00,9.90
2013,05,21,12,01,9.90
2013,05,21,12,02,10.00
2013,05,21,12,03,10.10
2013,05,21,12,04,10.10
2013,05,21,12,05,10.20
2013,05,21,12,06,10.20
2013,05,21,12,07,10.20
2013,05,21,12,08,10.20
2013,05,21,12,09,10.20
2013,05,21,12,10,10.20
2013,05,21,12,11,10.20
2013,05,21,12,12,10.30
2013,05,21,12,13,10.40
2013,05,21,12,14,10.40
2013,05,21,12,15,10.40
2013,05,21,12,16,10.40
2013,05,21,12,17,10.50
2013,05,21,12,18,10.60
2013,05,21,12,19,10.60
2013,05,21,12,20,10.60
2013,05,21,12,21,10.70
2013,05,21,12,22,10.70
2013,05,21,12,23,10.70
2013,05,21,12,24,10.80
2013,05,21,12,25,10.80
2013,05,21,12,26,10.80
2013,05,21,12,27,10.80
2013,05,21,12,28,10.80
2013,05,21,12,29,10.90
2013,05,21,12,30,10.90
2013,05,21,12,31,11.00
2013,05,21,12,32,11.10
2013,05,21,12,33,11.10
2013,05,21,12,34,11.10
2013,05,21,12,35,11.10
2013,05,21,12,36,11.10
2013,05,21,12,37,11.10
2013,05,21,12,38,11.10
2013,05,21,12,39,11.10
2013,05,21,12,40,11.10
2013,05,21,12,41,11.20
2013,05,21,12,42,11.20
2013,05,21,12,43,11.20
2013,05,21,12,44,11.20
2013,05,21,12,45,11.20
2013,05,21,12,46,11.20
2013,05,21,12,47,11.20
2013,05,21,12,48,11.20
2013,05,21,12,49,11.20
2013,05,21,12,50,11.20
2013,05,21,12,51,11.10
2013,05,21,12,52,11.10
2013,05,21,12,53,11.00
2013,05,21,12,54,10.90
2013,05,21,12,55,10.90
2013,05,21,12,56,10.80
2013,05,21,12,57,10.70
2013,05,21,12,58,10.70
2013,05,21,12,59,10.70
2013,05,21,13,00,10.70
2013,05,21,13,01,10.70
2013,05,21,13,02,10.60
2013,05,21,13,03,10.60
2013,05,21,13,04,10.60
2013,05,21,13,05,10.60
2013,05,21,13,06,10.70
2013,05,21,13,07,10.60
2013,05,21,13,08,10.60
2013,05,21,13,09,10.60
2013,05,21,13,10,10.60
2013,05,21,13,11,10.60
2013,05,21,13,12,10.60
2013,05,21,13,13,10.50
2013,05,21,13,14,10.40
2013,05,21,13,15,10.40
2013,05,21,13,16,10.40
2013,05,21,13,17,10.30
2013,05,21,13,18,10.30
2013,05,21,13,19,10.20
2013,05,21,13,20,10.20
2013,05,21,13,21,10.20
2013,05,21,13,22,10.20
2013,05,21,13,23,10.30
2013,05,21,13,24,10.20
2013,05,21,13,25,10.20
2013,05,21,13,26,10.20
2013,05,21,13,27,10.20
2013,05,21,13,28,10.20
2013,05,21,13,29,10.20
2013,05,21,13,30,10.20
2013,05,21,13,31,10.20
2013,05,21,13,32,10.20
2013,05,21,13,33,10.20
2013,05,21,13,34,10.20
2013,05,21,13,35,10.10
2013,05,21,13,36,10.10
2013,05,21,13,37,10.10
2013,05,21,13,38,10.20
2013,05,21,13,39,10.20
2013,05,21,13,40,10.20
2013,05,21,13,41,10.20
2013,05,21,13,42,10.20
2013,05,21,13,43,10.20
2013,05,21,13,44,10.20
2013,05,21,13,45,10.30
2013,05,21,13,46,10.20
2013,05,21,13,47,10.20
2013,05,21,13,48,10.20
2013,05,21,13,49,10.20
2013,05,21,13,50,10.30
2013,05,21,13,51,10.30
2013,05,21,13,52,10.40
2013,05,21,13,53,10.40
2013,05,21,13,54,10.40
2013,05,21,13,55,10.40
2013,05,21,13,56,10.40
2013,05,21,13,57,10.40
2013,05,21,13,58,10.40
2013,05,21,13,59,10.50
2013,05,21,14,00,10.60
2013,05,21,14,01,10.60
2013,05,21,14,02,10.70
2013,05,21,14,03,10.70
2013,05,21,14,04,10.80
2013,05,21,14,05,10.70
2013,05,21,14,06,10.70
2013,05,21,14,07,10.70
2013,05,21,14,08,10.70
2013,05,21,14,09,10.70
2013,05,21,14,10,10.70
2013,05,21,14,11,10.80
2013,05,21,14,12,10.80
2013,05,21,14,13,10.70
2013,05,21,14,14,10.70
2013,05,21,14,15,10.70
2013,05,21,14,16,10.70
2013,05,21,14,17,10.70
2013,05,21,14,18,10.60
2013,05,21,14,19,10.70
2013,05,21,14,20,10.70
2013,05,21,14,21,10.70
2013,05,21,14,22,10.80
2013,05,21,14,23,10.90
2013,05,21,14,24,11.00
2013,05,21,14,25,11.10
2013,05,21,14,26,11.20
2013,05,21,14,27,11.20
2013,05,21,14,28,11.10
2013,05,21,14,29,11.10
2013,05,21,14,30,11.10
2013,05,21,14,31,11.10
2013,05,21,14,32,11.20
2013,05,21,14,33,11.20
2013,05,21,14,34,11.30
2013,05,21,14,35,11.40
2013,05,21,14,36,11.30
2013,05,21,14,37,11.30
2013,05,21,14,38,11.20
2013,05,21,14,39,11.20
2013,05,21,14,40,11.10
2013,05,21,14,41,11.10
2013,05,21,14,42,11.20
2013,05,21,14,43,11.20
2013,05,21,14,44,11.10
2013,05,21,14,45,11.10
2013,05,21,14,46,11.20
2013,05,21,14,47,11.20
2013,05,21,14,48,11.10
2013,05,21,14,49,11.20
2013,05,21,14,50,11.10
2013,05,21,14,51,11.10
2013,05,21,14,52,11.10
2013,05,21,14,53,10.90
2013,05,21,14,54,10.90
2013,05,21,14,55,11.00
2013,05,21,14,56,11.10
2013,05,21,14,57,11.20
2013,05,21,14,58,11.20
2013,05,21,14,59,11.20
2013,05,21,15,00,11.20
2013,05,21,15,01,11.30
2013,05,21,15,02,11.30
2013,05,21,15,03,11.10
2013,05,21,15,04,11.10
2013,05,21,15,05,11.00
2013,05,21,15,06,11.10
2013,05,21,15,07,11.10
2013,05,21,15,08,11.10
2013,05,21,15,09,11.20
2013,05,21,15,10,11.20
2013,05,21,15,11,11.40
2013,05,21,15,12,11.40
2013,05,21,15,13,11.60
2013,05,21,15,14,11.60
2013,05,21,15,15,11.60
2013,05,21,15,16,11.60
2013,05,21,15,17,11.70
2013,05,21,15,18,11.80
2013,05,21,15,19,11.80
2013,05,21,15,20,11.80
2013,05,21,15,21,11.80
2013,05,21,15,22,11.80
2013,05,21,15,23,11.80
2013,05,21,15,24,11.90
2013,05,21,15,25,11.90
2013,05,21,15,26,11.80
2013,05,21,15,27,11.80
2013,05,21,15,28,11.80
2013,05,21,15,29,11.90
2013,05,21,15,30,12.00
2013,05,21,15,31,11.90
2013,05,21,15,32,12.00
2013,05,21,15,33,12.00
2013,05,21,15,34,12.10
2013,05,21,15,35,12.10
2013,05,21,15,36,12.20
2013,05,21,15,37,12.20
2013,05,21,15,38,12.20
2013,05,21,15,39,12.20
2013,05,21,15,40,12.30
2013,05,21,15,41,12.30
2013,05,21,15,42,12.30
2013,05,21,15,43,12.30
2013,05,21,15,44,12.30
2013,05,21,15,45,12.30
2013,05,21,15,46,12.30
2013,05,21,15,47,12.40
2013,05,21,15,48,12.40
2013,05,21,15,49,12.40
2013,05,21,15,50,12.40
2013,05,21,15,51,12.30
2013,05,21,15,52,12.30
2013,05,21,15,53,12.30
2013,05,21,15,54,12.30
2013,05,21,15,55,12.30
2013,05,21,15,56,12.30
2013,05,21,15,57,12.30
2013,05,21,15,58,12.20
2013,05,21,15,59,12.00
2013,05,21,16,00,11.90
2013,05,21,16,01,11.80
2013,05,21,16,02,11.80
2013,05,21,16,03,11.80
2013,05,21,16,04,11.90
2013,05,21,16,05,11.80
2013,05,21,16,06,11.70
2013,05,21,16,07,11.70
2013,05,21,16,08,11.60
2013,05,21,16,09,11.60
2013,05,21,16,10,11.60
2013,05,21,16,11,11.60
2013,05,21,16,12,11.60
2013,05,21,16,13,11.60
2013,05,21,16,14,11.60
2013,05,21,16,15,11.60
2013,05,21,16,16,11.60
2013,05,21,16,17,11.60
2013,05,21,16,18,11.60
2013,05,21,16,19,11.60
2013,05,21,16,20,11.60
2013,05,21,16,21,11.60
2013,05,21,16,22,11.60
2013,05,21,16,23,11.60
2013,05,21,16,24,11.60
2013,05,21,16,25,11.60
2013,05,21,16,26,11.60
2013,05,21,16,27,11.60
2013,05,21,16,28,11.60
2013,05,21,16,29,11.60
2013,05,21,16,30,11.60
2013,05,21,16,31,11.60
2013,05,21,16,32,11.70
2013,05,21,16,33,11.80
2013,05,21,16,34,11.80
2013,05,21,16,35,11.90
2013,05,21,16,36,12.00
2013,05,21,16,37,12.10
2013,05,21,16,38,12.30
2013,05,21,16,39,12.40
2013,05,21,16,40,12.50
2013,05,21,16,41,12.50
2013,05,21,16,42,12.40
2013,05,21,16,43,12.30
2013,05,21,16,44,12.30
2013,05,21,16,45,12.30
2013,05,21,16,46,12.20
2013,05,21,16,47,12.20
2013,05,21,16,48,12.10
2013,05,21,16,49,12.10
2013,05,21,16,50,12.10
2013,05,21,16,51,12.10
2013,05,21,16,52,12.10
2013,05,21,16,53,12.20
2013,05,21,16,54,12.20
2013,05,21,16,55,12.30
2013,05,21,16,56,12.30
2013,05,21,16,57,12.40
2013,05,21,16,58,12.40
2013,05,21,16,59,12.30
2013,05,21,17,00,12.30
2013,05,21,17,01,12.20
2013,05,21,17,02,12.10
2013,05,21,17,03,12.10
2013,05,21,17,04,12.10
2013,05,21,17,05,12.10
2013,05,21,17,06,12.10
2013,05,21,17,07,12.10
2013,05,21,17,08,12.10
2013,05,21,17,09,12.10
2013,05,21,17,10,12.10
2013,05,21,17,11,12.10
2013,05,21,17,12,12.10
2013,05,21,17,13,12.20
2013,05,21,17,14,12.20
2013,05,21,17,15,12.30
2013,05,21,17,16,12.30
2013,05,21,17,17,12.20
2013,05,21,17,18,12.20
2013,05,21,17,19,12.10
2013,05,21,17,20,12.20
2013,05,21,17,21,12.10
2013,05,21,17,22,12.20
2013,05,21,17,23,12.20
2013,05,21,17,24,12.20
2013,05,21,17,25,12.20
2013,05,21,17,26,12.20
2013,05,21,17,27,12.20
2013,05,21,17,28,12.20
2013,05,21,17,29,12.20
2013,05,21,17,30,12.30
2013,05,21,17,31,12.30
2013,05,21,17,32,12.30
2013,05,21,17,33,12.30
2013,05,21,17,34,12.30
2013,05,21,17,35,12.30
2013,05,21,17,36,12.40
2013,05,21,17,37,12.40
2013,05,21,17,38,12.40
2013,05,21,17,39,12.40
2013,05,21,17,40,12.30
2013,05,21,17,41,12.30
2013,05,21,17,42,12.30
2013,05,21,17,43,12.40
2013,05,21,17,44,12.50
2013,05,21,17,45,12.50
2013,05,21,17,46,12.50
2013,05,21,17,47,12.60
2013,05,21,17,48,12.60